Вернуться в каталог

SL-24 DEB

АктивенPO
NORAD 36510·DEBRIS·🇷🇺 Russia

Запущен Apr 8, 2010 с Baikonur Cosmodrome

Loading…

Ближайшие Пролёты (ближайшие 24 часа)

TLE

СвежийSource: Space-Track

Эпоха: Sep 14, 2026, 14:45 UTC

1 36510U 10013C   26257.61463816  .00001499  00000-0  21783-3 0  9994
2 36510  92.0273 327.7428 0021403  65.7635 294.5818 14.75747272877684

Отслеживайте SL-24 DEB в реальном времени с AllMySat

Download on the App Store